Waarnemingen

Advertentie
Mijn weer
Vigo Peinador, Spanje (8045): temperatuur & dauwpunt: 13.01.2018 18:00:00 - 19.01.2018 18:00:00 (CET)Vigo Peinador, Spanje (8045): windsnelheid: 13.01.2018 18:00:00 - 19.01.2018 18:00:00 (CET)Vigo Peinador, Spanje (8045): windrichting: 13.01.2018 18:00:00 - 19.01.2018 18:00:00 (CET)Vigo Peinador, Spanje (8045): luchtdruk: 13.01.2018 18:00:00 - 19.01.2018 18:00:00 (CET)Vigo Peinador, Spanje (8045): zicht: 13.01.2018 18:00:00 - 19.01.2018 18:00:00 (CET)
Datum & Tijd tt [°C] td [°C] ff [km/u] ff [kn] dd ppp [hPa] vv [km]
19.01.2018 18:00:00 11,8 6,3 8 4 NW 1027,3 10
19.01.2018 17:00:00 12,9 5,9 8 4 NNW 1026,4 10
19.01.2018 16:00:00 13,6 6,2 13 7 N 1026,2 40
19.01.2018 15:00:00 12,9 5,8 15 8 NNO 1026,4 10
19.01.2018 14:00:00 12,5 7,0 15 8 N 1027,1 10
19.01.2018 13:00:00 12,5 7,8 15 8 NNO 1027,2 35
19.01.2018 12:00:00 11,4 9,3 9 5 NO 1027,4 10
19.01.2018 11:00:00 10,0 9,5 4 2 NNO 1027,3 10
19.01.2018 10:00:00 9,2 9,1 2 1 - 1026,9 10
19.01.2018 09:00:00 8,5 8,2 2 1 - 1026,4 10
19.01.2018 08:00:00 8,9 8,6 4 2 - 1025,6 7
19.01.2018 07:00:00 8,9 8,6 4 2 - 1025,4 5
19.01.2018 06:00:00 9,5 9,0 4 2 - 1024,6 0,2
19.01.2018 05:00:00 9,5 9,0 0 0 N 1024,9 10
19.01.2018 04:00:00 9,4 8,9 0 0 N 1025,3 8
19.01.2018 03:00:00 9,8 9,2 8 4 N 1025,2 10
19.01.2018 02:00:00 9,7 8,8 4 2 - 1025,0 10
19.01.2018 01:00:00 9,5 8,3 2 1 - 1025,4 10
19.01.2018 00:00:00 9,5 8,4 0 0 N 1025,5 10
18.01.2018 23:00:00 9,5 8,3 0 0 N 1025,5 10
18.01.2018 22:00:00 9,7 8,3 2 1 - 1025,8 10
18.01.2018 21:00:00 9,9 8,0 4 2 - 1025,7 10
18.01.2018 20:00:00 9,3 8,2 0 0 N 1025,6 10
18.01.2018 19:00:00 9,7 8,0 9 5 NNO 1025,3 10
18.01.2018 18:00:00 10,0 7,9 13 7 N 1025,1 10
18.01.2018 17:00:00 10,2 8,0 13 7 N 1025,0 10
18.01.2018 16:00:00 10,3 8,1 9 5 N 1025,1 10
18.01.2018 15:00:00 10,8 7,8 9 5 NNO 1025,3 10
18.01.2018 14:00:00 11,2 7,7 8 4 NO 1025,5 10
18.01.2018 13:00:00 10,7 7,8 9 5 NNO 1026,7 10
18.01.2018 12:00:00 8,5 6,3 5 3 NO 1027,6 10
18.01.2018 11:00:00 8,6 5,5 4 2 - 1027,4 10
18.01.2018 10:00:00 6,3 4,5 2 1 - 1027,4 10
18.01.2018 09:00:00 4,1 3,2 2 1 - 1027,2 10
18.01.2018 08:00:00 4,1 2,9 2 1 - 1026,9 10
18.01.2018 07:00:00 5,2 3,2 8 4 N 1027,0 10
18.01.2018 06:00:00 4,9 3,4 5 3 NNO 1027,1 10
18.01.2018 05:00:00 6,0 3,8 11 6 N 1027,2 10
18.01.2018 04:00:00 4,7 3,4 8 4 N 1027,7 10
18.01.2018 03:00:00 4,7 3,4 0 0 N 1028,2 10
18.01.2018 02:00:00 6,5 3,5 9 5 N 1028,8 10
18.01.2018 01:00:00 6,3 3,6 9 5 N 1029,5 10
18.01.2018 00:00:00 6,6 3,9 8 4 N 1029,9 10
17.01.2018 23:00:00 6,2 4,7 9 5 NNO 1030,1 10
17.01.2018 22:00:00 7,3 4,9 11 6 N 1029,6 10
17.01.2018 21:00:00 8,1 5,4 11 6 N 1029,4 10
17.01.2018 20:00:00 8,5 6,1 9 5 N 1029,5 10
17.01.2018 19:00:00 9,1 6,4 8 4 N 1029,6 10
17.01.2018 18:00:00 10,4 6,3 11 6 NNW 1029,3 10
17.01.2018 17:00:00 11,6 5,7 13 7 N 1029,3 10
17.01.2018 16:00:00 11,8 5,8 18 10 N 1029,5 10
17.01.2018 15:00:00 12,2 6,6 16 9 N 1029,8 10
17.01.2018 14:00:00 11,8 7,0 15 8 N 1030,6 10
17.01.2018 13:00:00 11,7 6,9 9 5 NNO 1031,2 10
17.01.2018 12:00:00 10,7 8,8 2 1 - 1032,0 10
17.01.2018 11:00:00 9,7 6,6 2 1 - 1031,9 10
17.01.2018 10:00:00 8,2 7,2 0 0 N 1031,8 10
17.01.2018 09:00:00 7,8 6,7 4 2 - 1031,5 10
17.01.2018 08:00:00 7,2 6,9 2 1 - 1030,9 7
17.01.2018 07:00:00 8,3 8,0 5 3 NNO 1030,7 7
17.01.2018 06:00:00 8,8 8,0 8 4 N 1030,4 7
17.01.2018 05:00:00 10,1 8,2 11 6 NNW 1030,4 6
17.01.2018 04:00:00 10,5 10,0 0 0 N 1030,3 3,0
17.01.2018 03:00:00 10,8 10,2 5 3 NNW 1030,3 6
17.01.2018 02:00:00 10,8 10,4 9 5 WNW 1030,2 4,0
17.01.2018 01:00:00 11,0 10,8 9 5 W 1030,4 3,0
17.01.2018 00:00:00 11,0 11,0 8 4 NW 1030,5 1,8
16.01.2018 23:00:00 11,3 11,3 8 4 W 1029,8 0,4
16.01.2018 22:00:00 11,4 11,4 2 1 - 1030,0 0,4
16.01.2018 21:00:00 11,4 11,4 8 4 W 1029,8 -
16.01.2018 20:00:00 11,2 11,2 8 4 WZW 1029,6 1,0
16.01.2018 19:00:00 11,2 11,2 9 5 WZW 1029,1 1,0
16.01.2018 18:00:00 11,2 11,2 8 4 WZW 1028,9 2,0
16.01.2018 17:00:00 11,4 11,4 8 4 ZW 1029,0 0,2
16.01.2018 16:00:00 11,5 11,5 9 5 WZW 1029,2 0,8
16.01.2018 15:00:00 11,0 11,0 2 1 - 1029,7 0,3
16.01.2018 14:00:00 10,6 10,6 4 2 Z 1030,1 -
16.01.2018 13:00:00 10,2 10,2 4 2 - 1030,7 -
16.01.2018 12:00:00 9,7 9,7 5 3 ZZW 1031,3 -
16.01.2018 11:00:00 9,3 9,3 8 4 ZZW 1030,9 0,1
16.01.2018 10:00:00 9,2 9,2 4 2 - 1030,6 0,1
16.01.2018 09:00:00 9,0 9,0 5 3 ZZW 1029,7 0,2
16.01.2018 08:00:00 8,8 8,8 8 4 ZZW 1029,4 0,2
16.01.2018 07:00:00 8,8 8,8 5 3 Z 1028,9 0,2
16.01.2018 06:00:00 8,7 8,7 5 3 ZZW 1029,0 0,2
16.01.2018 05:00:00 8,6 8,6 11 6 Z 1029,2 0,2
16.01.2018 04:00:00 8,5 8,5 11 6 ZZW 1029,1 0,2
16.01.2018 03:00:00 8,3 8,3 15 8 ZZW 1029,3 0,2
16.01.2018 02:00:00 8,3 8,3 15 8 Z 1029,6 0,2
16.01.2018 01:00:00 8,2 8,2 13 7 Z 1029,8 0,2
16.01.2018 00:00:00 8,1 8,1 15 8 ZZW 1029,8 0,2
15.01.2018 23:00:00 8,1 8,1 15 8 ZZW 1029,7 0,2
15.01.2018 22:00:00 7,9 7,9 16 9 ZZW 1029,2 0,1
15.01.2018 21:00:00 7,6 7,6 15 8 Z 1029,1 0,1
15.01.2018 20:00:00 7,4 7,3 13 7 Z 1029,0 0,1
15.01.2018 19:00:00 7,2 7,1 11 6 Z 1028,7 0,3
15.01.2018 18:00:00 6,9 6,6 11 6 ZZW 1028,5 2,0
15.01.2018 17:00:00 6,9 6,0 9 5 ZW 1028,2 5
15.01.2018 16:00:00 6,4 5,3 9 5 ZZW 1028,3 10
15.01.2018 15:00:00 6,1 4,9 13 7 ZW 1028,8 10
15.01.2018 14:00:00 5,6 4,9 11 6 ZZW 1029,3 10
15.01.2018 13:00:00 4,4 4,4 13 7 ZW 1029,9 1,5
15.01.2018 12:00:00 2,6 2,6 15 8 ZW 1030,3 0,5
15.01.2018 11:00:00 1,7 1,7 15 8 ZW 1029,9 0,2
15.01.2018 10:00:00 0,9 0,9 11 6 ZW 1029,6 0,6
15.01.2018 09:00:00 0,0 0,0 13 7 ZW 1029,0 0,2
15.01.2018 08:00:00 0,4 0,4 9 5 ZW 1028,6 0,2
15.01.2018 07:00:00 0,8 0,8 13 7 ZW 1028,0 0,2
15.01.2018 06:00:00 1,7 1,7 4 2 - 1027,4 0,3
15.01.2018 05:00:00 1,6 1,6 8 4 WZW 1027,2 0,2
15.01.2018 04:00:00 1,7 1,6 9 5 ZW 1027,2 0,2
15.01.2018 03:00:00 3,3 3,2 8 4 WZW 1026,6 0,2
15.01.2018 02:00:00 3,3 3,2 8 4 WZW 1026,8 0,6
15.01.2018 01:00:00 3,0 2,4 0 0 N 1026,9 8
15.01.2018 00:00:00 4,1 2,9 5 3 NNW 1026,8 10
14.01.2018 23:00:00 4,0 3,6 2 1 - 1026,2 10
14.01.2018 22:00:00 4,7 4,0 2 1 - 1025,0 10
14.01.2018 21:00:00 5,1 4,2 4 2 - 1024,5 10
14.01.2018 20:00:00 4,9 4,2 2 1 - 1024,1 10
14.01.2018 19:00:00 6,1 4,9 5 3 NW 1023,4 10
14.01.2018 18:00:00 9,0 5,4 4 2 - 1021,9 10
14.01.2018 17:00:00 10,3 4,4 4 2 - 1021,0 10
14.01.2018 16:00:00 10,0 4,0 5 3 ZZW 1020,7 10
14.01.2018 15:00:00 9,2 4,4 8 4 ZZW 1020,9 10
14.01.2018 14:00:00 8,4 6,0 8 4 ZW 1021,2 10
14.01.2018 13:00:00 6,1 6,0 5 3 ZZW 1022,1 7
14.01.2018 12:00:00 4,8 4,8 5 3 ZW 1022,2 2,0
14.01.2018 11:00:00 4,1 4,1 9 5 ZZW 1021,8 0,2
14.01.2018 10:00:00 3,8 3,8 9 5 ZZW 1021,4 0,2
14.01.2018 09:00:00 3,7 3,7 0 0 N 1021,0 0,3
14.01.2018 08:00:00 3,5 3,5 11 6 ZW 1020,5 0,3
14.01.2018 07:00:00 3,3 3,3 9 5 ZZW 1020,3 0,3
14.01.2018 06:00:00 3,6 3,5 2 1 - 1020,5 0,3
14.01.2018 05:00:00 4,1 4,0 9 5 ZZW 1020,5 5
14.01.2018 04:00:00 3,9 3,8 4 2 - 1020,2 5
14.01.2018 03:00:00 3,7 3,6 2 1 - 1019,9 5
14.01.2018 02:00:00 4,6 4,5 8 4 ZW 1019,9 0,5
14.01.2018 01:00:00 5,0 4,7 8 4 Z 1020,3 8
14.01.2018 00:00:00 5,0 4,7 13 7 ZZW 1020,1 4,0
13.01.2018 23:00:00 5,4 5,0 2 1 - 1019,8 3,0
13.01.2018 22:00:00 5,4 5,0 5 3 ZW 1019,1 6
13.01.2018 21:00:00 5,7 5,3 8 4 ZZW 1019,0 3,0
13.01.2018 20:00:00 5,8 5,5 2 1 - 1018,5 8
13.01.2018 19:00:00 6,3 6,0 5 3 ZZW 1018,3 3,0
13.01.2018 18:00:00 6,6 6,3 13 7 ZZW 1017,5 4,0

tt = temperatuur
td = dauwpunt
ff = windsnelheid
dd = windrichting
ppp = luchtdruk
vv = zicht

Weerstations in de omgeving